OPS 4682 DEB, 38382

Orbit data source: Space-Track

OPS 4682 DEB, 38382 is space debris in LEO originally from a launch on Sat, 03 Apr 1965 UTC launched from the Air Force Western Test Range (AFWTR). Debris objects in space refer to the collection of defunct objects orbiting the Earth. Examples of debris include non-operational satellites, rocket bodies, and fragments generated from explosions, collisions, or faulty payload assembly.

Loading next visibility...
Identifier
38382, 1965-027CK
Orbit
LEO
Country
Flag of USUS
Related business
Manufacturer
Unknown
Mission
Spacecraft
Bus & Motor
Unknown
Mass
Unknown
Launch date (UTC)
1965-04-03 (61 years ago)
Launch vehicle
Unknown
Launch site
Air Force Western Test Range (AFWTR)
Object type
Payload
Rocket body
Debris
Shape & HBR
Unknown shape, 0.1 m
Radar Cross Section
Small (<0.1 m²)

Expand to show TLE details & history
Last TLE update: 5 days ago

TLE from 5 days ago
0 OPS 4682 DEB
1 38382U 65027CK  26259.03911417  .00000084  00000-0  26544-3 0  9990
2 38382  90.2576  11.0617 0023071 288.5121  71.3492 12.96789886 74204
Epoch: 2026-09-16T00:56Z
TLE epoch observation values (Epoch: 2026-09-16T00:56:19.464Z)
Latitude
-0.00006°
Longitude
1.98417°
Altitude
1,271.958 km
Speed
7.222 km/s
True Right ascension
00h 44m 14s
True Declination
0° 00' 00"
Sunlit
Object was in full shadow at epoch
Visualization orbit readout
Latitude
Unknown
Longitude
Unknown
Altitude
Unknown
Speed
Unknown
Apparent Right ascension
Unknown
Apparent Declination
Unknown
Sunlit
N/A
Visualization observer readout
Local Sidereal Time
10:57:31
Azimuth
Unknown
Elevation
Unknown
Doppler factor
Unknown
Orbital elements
Apogee altitude
1,289.471 km
Perigee altitude
1,254.173 km
Semi-major axis
7,649.959 km
Eccentricity
0.00231
Inclination
90.2576°
RAAN
11.0617°
Arg. of periapsis
288.5121°
True anomaly
71.59992°
Mean anomaly
71.3492°
Eccentric anomaly
71.47454°
Mean motion
3.2438 °/min
Orbital period
110.98 mins
BSTAR
0.00026544
Loading maneuver chart data...
Computing Atmospheric mass density...
Loading historical data...
Loading historical data...
Loading historical data...
Loading historical data...
Loading historical data...
Loading historical data...
Loading historical data...

Documentation

Showing up to 5 results
|